Main page
METAR-TAF:

METAR-TAF

Airports :

Oil platform

Euro, Netherlands

latitude: 51-59-52N, longitude: 3-16-30E, elevation: 18 m

Current weather observation

The report was made 40 minutes ago, at 23:25 UTC
Wind 16 kt from the North/Northeast
Temperature 10°C
Humidity 71%
Pressure 1010 hPa
Visibility 10 km or more

METAR: EHSA 172325Z AUTO 02016KT 9999 ///////// 10/05 Q1010 W10/H7

Time: 01:05 (00:05 UTC)


TAF: missing

Weather observations and forecasts of more than 4000 airports (METAR and TAF reports).

The available stations are represented by yellow and red dots on the map.

Hover mouse over dot to see the name of the station.

Then click to see weather observations and forecasts.

To change the map : click on the green buttons with a black cross to zoom in, on the green button with a dash to zoom out, or on the green arrows for adjacent maps.


METAR-TAF: